Showing default

RCM 1, 44322

Orbit data source: Space-Track

RCM 1, 44322 is a payload satellite owned by CSA (CA) in SSO that was launched on Wed, 12 Jun 2019 UTC via an FALCON 9 launch vehicle from the Air Force Western Test Range (AFWTR). Payload-class satellites include a variety of spacecraft equipped with specific instruments for various scientific and technological missions. These include communications satellites like Starlink; space stations such as the ISS; scientific satellites like the Hubble; Earth observation satellites from companies like Planet Labs, Umbra, and HawkEye 360; GPS; miniature CubeSats for education and research; and military/defense satellites.

Loading next visibility...
Identifier
44322, 2019-033A
Orbit
SSO
Last TLE update
5 hours ago
Origin
Manufacturer
BALM/MAXAR
Mission
Operational Civil Radar Imaging
Bus & Motor
MAC-200, Unknown motor
Mass
1,450 kg wet, ~1,400 kg dry
Launch date (UTC)
2019-06-12 (6 years ago)
Launch vehicle
FALCON 9
Launch site
Air Force Western Test Range (AFWTR)
Object type
Payload
Rocket body
Debris
Shape & HBR
Box + 2 Pan, 7 m
Radar Cross Section
10.097 m², Large (>1 m²)

Expand to show TLE details & history

TLE from 5 hours ago
0 RCM 1
1 44322U 19033A   25187.14571726  .00000627  00000-0  66349-4 0  9994
2 44322  97.7606 194.5398 0001525  90.6262 269.5132 14.92588635330464
Epoch: 2025-07-06T03:29Z
TLE epoch observation values (Epoch: 2025-07-06T03:29:49.971Z)
Latitude
-0°
Longitude
-142.29202°
Altitude
592.919 km
Speed
7.563 km/s
True Right ascension
12h 58m 09s
True Declination
0° 00' 00"
Sunlit
Object was in daylight at epoch
Visualization orbit readout
Latitude
78.00447°
Longitude
77.56086°
Altitude
601.981 km
Speed
7.566 km/s
Apparent Right ascension
07h 43m 24s
Apparent Declination
26° 45' 31"
Sunlit
Object is in daylight
Visualization observer readout
Local Sidereal Time
20:43:54
Azimuth
14.538° NNE
Elevation
-21.853°
Doppler factor
1
Orbital elements
Apogee altitude
587.947 km
Perigee altitude
585.823 km
Semi-major axis
6,965.022 km
Eccentricity
0.00015
Inclination
97.7606°
RAAN
194.5398°
Arg. of periapsis
90.6262°
True anomaly
Unknown
Mean anomaly
269.5132°
Eccentric anomaly
Unknown
Mean motion
3.73387 °/min
Orbital period
96.41 mins
BSTAR
0.000066349
Loading maneuver chart data...
Loading SW <> Apogee altitude chart data...
Loading historical data...
Loading historical data...
Loading historical data...
Loading historical data...
Loading historical data...
Loading historical data...
Loading historical data...
Other satellites on launch #33 in the year 2019 (2019-06-12 UTC)

RCM 1 Visibility forecast

Observer location: undefined°, undefined°

Span
Click to sort rows by Start time (UTC) header in descending order
Start Az.
Max El. time (UTC)
Max El. Az.
Max El.
End time (UTC)
End Az.
6 mins2025-07-06 13:44:01.052Z352.559° N2025-07-06 13:46:01.052Z297.611° NW38.429°2025-07-06 13:50:01.052Z210.216° SW
6 mins2025-07-07 00:33:01.052Z167.338° S2025-07-07 00:36:01.052Z343.328° N43.464°2025-07-07 00:39:01.052Z347.21° N
|